| time (UTC) | temp C | wind direction | speed KPH | gust KPH | rain 1hr cm | rain 24hr cm | rain mn cm | humidity % | barometer mb |
| 20260503190041 | 15 | 338 | 0.0 | 0.0 | 0.00 | 0.00 | 0.00 | 93 | 1011.9 |
| 20260503184534 | 15 | 338 | 0.0 | 0.0 | 0.00 | 0.00 | 0.00 | 94 | 1012.0 |
| 20260503183034 | 15 | 338 | 0.0 | 0.0 | 0.00 | 0.00 | 0.00 | 93 | 1012.0 |
| 20260503181536 | 15 | 338 | 0.0 | 0.0 | 0.00 | 0.00 | 0.00 | 93 | 1011.9 |
| 20260503180035 | 15 | 338 | 0.0 | 0.0 | 0.00 | 0.00 | 0.00 | 93 | 1011.9 |
| 20260503174532 | 15 | 338 | 0.0 | 0.0 | 0.00 | 0.00 | 0.00 | 93 | 1011.8 |
| 20260503173031 | 15 | 338 | 0.0 | 0.0 | 0.00 | 0.00 | 0.00 | 93 | 1011.8 |
| 20260503171528 | 15 | 338 | 0.0 | 0.0 | 0.00 | 0.00 | 0.00 | 93 | 1012.0 |
| 20260503100109 | 20 | 15 | 1.6 | 12.9 | 0.00 | 0.00 | 0.00 | 79 | 1014.0 |
| 20260503081558 | 21 | 72 | 3.2 | 11.3 | 0.00 | 0.00 | 0.00 | 73 | 1013.7 |
| 20260503071552 | 22 | 28 | 1.6 | 9.7 | 0.00 | 0.00 | 0.00 | 70 | 1013.5 |
| 20260503060110 | 25 | 68 | 4.8 | 14.5 | 0.00 | 0.00 | 0.00 | 52 | 1013.7 |
| 20260503054600 | 26 | 38 | 6.4 | 16.1 | 0.00 | 0.00 | 0.00 | 51 | 1013.8 |
| 20260503053045 | 26 | 65 | 4.8 | 17.7 | 0.00 | 0.00 | 0.00 | 51 | 1013.8 |
| 20260503051542 | 26 | 35 | 8.0 | 16.1 | 0.00 | 0.00 | 0.00 | 50 | 1014.0 |
| 20260503050041 | 27 | 32 | 4.8 | 14.5 | 0.00 | 0.00 | 0.00 | 51 | 1014.1 |
| 20260503044539 | 26 | 28 | 3.2 | 16.1 | 0.00 | 0.00 | 0.00 | 51 | 1014.1 |
| 20260503043037 | 26 | 15 | 8.0 | 16.1 | 0.00 | 0.00 | 0.00 | 50 | 1014.3 |
| 20260503041534 | 26 | 13 | 6.4 | 17.7 | 0.00 | 0.00 | 0.00 | 52 | 1014.4 |
| 20260503040036 | 26 | 11 | 3.2 | 12.9 | 0.00 | 0.00 | 0.00 | 52 | 1014.6 |
| 20260503034529 | 25 | 288 | 1.6 | 16.1 | 0.00 | 0.00 | 0.00 | 53 | 1014.6 |
| 20260503033030 | 25 | 355 | 4.8 | 19.3 | 0.00 | 0.00 | 0.00 | 54 | 1014.9 |
| 20260503031525 | 25 | 319 | 6.4 | 12.9 | 0.00 | 0.00 | 0.00 | 54 | 1015.1 |
| 20260503030026 | 25 | 21 | 4.8 | 12.9 | 0.00 | 0.00 | 0.00 | 55 | 1015.4 |
| 20260503024519 | 25 | 355 | 1.6 | 9.7 | 0.00 | 0.00 | 0.00 | 57 | 1015.6 |
| 20260503023016 | 24 | 268 | 3.2 | 9.7 | 0.00 | 0.00 | 0.00 | 60 | 1015.9 |
| 20260503021515 | 24 | 5 | 4.8 | 12.9 | 0.00 | 0.00 | 0.00 | 61 | 1016.1 |
| 20260503020010 | 24 | 279 | 4.8 | 12.9 | 0.00 | 0.00 | 0.00 | 62 | 1016.6 |
| 20260503014508 | 23 | 314 | 0.0 | 8.0 | 0.00 | 0.00 | 0.00 | 62 | 1017.0 |
| 20260503013006 | 23 | 24 | 3.2 | 11.3 | 0.00 | 0.00 | 0.00 | 64 | 1017.2 |
| 20260503011500 | 23 | 259 | 4.8 | 12.9 | 0.00 | 0.00 | 0.00 | 64 | 1017.5 |
| 20260503010057 | 22 | 333 | 3.2 | 12.9 | 0.00 | 0.00 | 0.00 | 67 | 1017.8 |
| 20260503004555 | 22 | 294 | 3.2 | 8.0 | 0.00 | 0.00 | 0.00 | 68 | 1018.0 |
| 20260503003052 | 22 | 292 | 4.8 | 11.3 | 0.00 | 0.00 | 0.00 | 69 | 1018.3 |
| 20260503001548 | 21 | 305 | 3.2 | 12.9 | 0.00 | 0.00 | 0.00 | 72 | 1018.3 |
| 20260503000047 | 21 | 31 | 4.8 | 12.9 | 0.00 | 0.00 | 0.00 | 74 | 1018.3 |
| 20260502234550 | 20 | 321 | 0.0 | 8.0 | 0.00 | 0.00 | 0.00 | 77 | 1018.4 |
| 20260502233038 | 20 | 30 | 3.2 | 9.7 | 0.00 | 0.00 | 0.00 | 79 | 1018.6 |
| 20260502231535 | 19 | 347 | 3.2 | 8.0 | 0.00 | 0.00 | 0.00 | 80 | 1018.9 |
| 20260502230031 | 18 | 316 | 1.6 | 6.4 | 0.00 | 0.00 | 0.00 | 85 | 1018.9 |
| 20260502224528 | 17 | 360 | 0.0 | 1.6 | 0.00 | 0.00 | 0.00 | 90 | 1018.9 |
| 20260502223024 | 16 | 360 | 0.0 | 1.6 | 0.00 | 0.00 | 0.00 | 93 | 1018.9 |
| 20260502221520 | 16 | 360 | 0.0 | 3.2 | 0.00 | 0.00 | 0.00 | 95 | 1018.9 |
| 20260502220018 | 15 | 9 | 0.0 | 0.0 | 0.00 | 0.00 | 0.00 | 95 | 1018.8 |
| 20260502214532 | 15 | 9 | 0.0 | 0.0 | 0.00 | 0.00 | 0.00 | 95 | 1018.5 |
| 20260502213013 | 14 | 9 | 0.0 | 0.0 | 0.00 | 0.00 | 0.00 | 94 | 1018.4 |
| 20260502211516 | 14 | 9 | 0.0 | 0.0 | 0.00 | 0.00 | 0.00 | 94 | 1018.3 |
| 20260502210020 | 13 | 9 | 0.0 | 0.0 | 0.00 | 0.00 | 0.00 | 94 | 1018.3 |
| 20260502204509 | 13 | 9 | 0.0 | 0.0 | 0.00 | 0.00 | 0.00 | 94 | 1018.0 |
| 20260502203002 | 13 | 69 | 0.0 | 0.0 | 0.00 | 0.00 | 0.00 | 94 | 1018.0 |
| 20260502201502 | 13 | 69 | 0.0 | 1.6 | 0.00 | 0.00 | 0.00 | 93 | 1018.2 |
| 20260502200100 | 13 | 69 | 0.0 | 0.0 | 0.00 | 0.00 | 0.00 | 93 | 1018.3 |
| 20260502194559 | 13 | 69 | 0.0 | 0.0 | 0.00 | 0.00 | 0.00 | 93 | 1018.1 |
| 20260502193059 | 13 | 69 | 0.0 | 0.0 | 0.00 | 0.00 | 0.00 | 93 | 1017.9 |
| 20260502191557 | 14 | 69 | 0.0 | 0.0 | 0.00 | 0.00 | 0.00 | 93 | 1017.8 |